CFG7EP EDDF-LPMA

Flight info

Callsign CFG7EP
Flight time N/A
Altitude 35000
Route SOBRA2L SOBRA Y180 DIK UN857 TOLVU DCT RAPOR/N0445F370 DCT GIMER/N0432F350 DCT ESTOC UT300 PON UN872 GODIX/N0409F310 UN872 DIDAK/N0445F370 UN872 ERIGA UN741 AZFIC DCT LOTEE DCT AGADO DCT LIDRO
Aircraft A20N/M-SDE2E3FGHIRWXY/LB1

Departure

Time N/A
Airport Frankfurt Main Airport (EDDF)

Arrival

Time 2026-05-05 16:51
Airport Cristiano Ronaldo International Airport (LPMA)
Time Latitude Longitude Altitude Speed Heading
2026-05-05 15:13 41.31706 -9.46882 37058 ft 435 kts 221°
2026-05-05 15:13 41.29263 -9.49238 37054 ft 435 kts 221°
2026-05-05 15:14 41.24356 -9.53965 37062 ft 434 kts 221°
2026-05-05 15:14 41.19472 -9.58660 37060 ft 433 kts 221°
2026-05-05 15:15 41.14598 -9.63340 37061 ft 433 kts 221°
2026-05-05 15:15 41.09769 -9.67977 37070 ft 432 kts 220°
2026-05-05 15:16 41.04882 -9.72674 37070 ft 431 kts 220°
2026-05-05 15:16 41.00055 -9.77291 37060 ft 431 kts 220°
2026-05-05 15:17 40.95192 -9.81928 37065 ft 432 kts 220°
2026-05-05 15:17 40.90316 -9.86566 37065 ft 431 kts 220°
2026-05-05 15:18 40.85444 -9.91167 37062 ft 431 kts 220°
2026-05-05 15:18 40.80586 -9.95746 37061 ft 429 kts 220°
2026-05-05 15:19 40.75745 -10.00314 37063 ft 429 kts 220°
2026-05-05 15:19 40.70874 -10.04907 37070 ft 429 kts 220°
2026-05-05 15:20 40.66025 -10.09474 37066 ft 430 kts 220°
2026-05-05 15:20 40.61183 -10.14027 37063 ft 429 kts 220°
2026-05-05 15:21 40.56337 -10.18576 37071 ft 428 kts 220°
2026-05-05 15:21 40.51501 -10.23106 37071 ft 427 kts 220°
2026-05-05 15:22 40.46674 -10.27622 37075 ft 427 kts 220°
2026-05-05 15:22 40.41857 -10.32118 37077 ft 426 kts 220°
2026-05-05 15:23 40.37028 -10.36618 37084 ft 426 kts 220°
2026-05-05 15:23 40.32219 -10.41092 37083 ft 425 kts 220°
2026-05-05 15:24 40.27407 -10.45562 37096 ft 426 kts 220°
2026-05-05 15:24 40.22601 -10.50017 37096 ft 425 kts 220°
2026-05-05 15:25 40.17761 -10.54495 37098 ft 425 kts 220°
2026-05-05 15:25 40.12955 -10.58935 37100 ft 425 kts 220°
2026-05-05 15:26 40.08165 -10.63351 37106 ft 424 kts 220°
2026-05-05 15:26 40.03357 -10.67787 37108 ft 423 kts 219°
2026-05-05 15:27 39.98545 -10.72232 37107 ft 423 kts 219°
2026-05-05 15:27 39.93760 -10.76633 37115 ft 423 kts 219°
2026-05-05 15:28 39.88945 -10.81045 37116 ft 423 kts 219°
2026-05-05 15:28 39.84135 -10.85414 37124 ft 422 kts 219°
2026-05-05 15:29 39.79345 -10.89768 37118 ft 421 kts 219°
2026-05-05 15:29 39.74570 -10.94111 37118 ft 421 kts 219°
2026-05-05 15:30 39.69758 -10.98483 37120 ft 421 kts 219°
2026-05-05 15:30 39.64979 -11.02820 37131 ft 421 kts 219°
2026-05-05 15:31 39.60192 -11.07157 37131 ft 421 kts 219°
2026-05-05 15:31 39.55400 -11.11492 37128 ft 420 kts 219°
2026-05-05 15:32 39.50623 -11.15805 37127 ft 420 kts 219°
2026-05-05 15:32 39.45844 -11.20112 37130 ft 419 kts 219°
2026-05-05 15:33 39.41051 -11.24426 37129 ft 419 kts 219°
2026-05-05 15:33 39.36286 -11.28707 37129 ft 419 kts 219°
2026-05-05 15:34 39.31513 -11.32987 37128 ft 418 kts 219°
2026-05-05 15:34 39.26765 -11.37239 37126 ft 418 kts 219°
2026-05-05 15:35 39.21986 -11.41511 37119 ft 417 kts 219°
2026-05-05 15:35 39.17233 -11.45753 37125 ft 417 kts 219°
2026-05-05 15:36 39.12457 -11.50007 37121 ft 417 kts 219°
2026-05-05 15:36 39.07704 -11.54236 37129 ft 417 kts 219°
2026-05-05 15:37 39.02953 -11.58455 37122 ft 416 kts 219°
2026-05-05 15:37 38.98197 -11.62668 37120 ft 416 kts 219°
2026-05-05 15:38 38.93437 -11.66888 37125 ft 417 kts 219°
2026-05-05 15:38 38.88690 -11.71105 37128 ft 416 kts 218°
2026-05-05 15:39 38.83926 -11.75292 37123 ft 415 kts 218°
2026-05-05 15:39 38.79165 -11.79474 37118 ft 416 kts 218°
2026-05-05 15:40 38.74410 -11.83650 37123 ft 416 kts 219°
2026-05-05 15:40 38.69654 -11.87822 37127 ft 415 kts 219°
2026-05-05 15:41 38.64867 -11.92014 37124 ft 415 kts 219°
2026-05-05 15:41 38.60128 -11.96161 37120 ft 414 kts 218°
2026-05-05 15:42 38.55379 -12.00309 37120 ft 414 kts 218°
2026-05-05 15:42 38.50650 -12.04432 37123 ft 413 kts 218°
2026-05-05 15:43 38.45918 -12.08551 37127 ft 413 kts 218°
2026-05-05 15:43 38.41177 -12.12672 37129 ft 413 kts 218°
2026-05-05 15:44 38.36403 -12.16817 37128 ft 417 kts 218°
2026-05-05 15:44 38.31596 -12.20980 37125 ft 422 kts 218°
2026-05-05 15:45 38.26740 -12.25183 37129 ft 425 kts 218°
2026-05-05 15:45 38.21827 -12.29425 37132 ft 428 kts 218°
2026-05-05 15:46 38.16934 -12.33640 37131 ft 428 kts 218°
2026-05-05 15:46 38.12001 -12.37887 37126 ft 427 kts 218°
2026-05-05 15:47 38.07106 -12.42092 37129 ft 426 kts 218°
2026-05-05 15:47 38.02197 -12.46300 37134 ft 427 kts 218°
2026-05-05 15:48 37.97272 -12.50519 37134 ft 426 kts 218°
2026-05-05 15:48 37.92363 -12.54715 37135 ft 427 kts 218°
2026-05-05 15:49 37.87461 -12.58890 37137 ft 427 kts 218°
2026-05-05 15:49 37.82526 -12.63068 37143 ft 428 kts 218°
2026-05-05 15:50 37.77587 -12.67258 37142 ft 428 kts 217°
2026-05-05 15:50 37.72673 -12.71451 37138 ft 428 kts 218°
2026-05-05 15:51 37.67718 -12.75669 37139 ft 428 kts 218°
2026-05-05 15:51 37.62788 -12.79850 37142 ft 429 kts 217°
2026-05-05 15:52 37.57838 -12.84037 37144 ft 429 kts 217°
2026-05-05 15:52 37.52903 -12.88203 37142 ft 429 kts 217°
2026-05-05 15:53 37.47942 -12.92382 37144 ft 430 kts 218°
2026-05-05 15:53 37.42974 -12.96565 37145 ft 430 kts 217°
2026-05-05 15:54 37.37999 -13.00742 37143 ft 430 kts 217°
2026-05-05 15:54 37.33033 -13.04905 37145 ft 430 kts 217°
2026-05-05 15:55 37.28071 -13.09060 37144 ft 430 kts 217°
2026-05-05 15:55 37.23107 -13.13207 37143 ft 431 kts 217°
2026-05-05 15:56 37.18136 -13.17353 37146 ft 431 kts 217°
2026-05-05 15:56 37.13136 -13.21513 37150 ft 432 kts 217°
2026-05-05 15:57 37.08131 -13.25674 37148 ft 432 kts 217°
2026-05-05 15:57 37.03119 -13.29836 37145 ft 432 kts 217°
2026-05-05 15:58 36.98117 -13.33983 37146 ft 432 kts 217°
2026-05-05 15:58 36.93140 -13.38102 37143 ft 432 kts 217°
2026-05-05 15:59 36.88120 -13.42245 37144 ft 432 kts 217°
2026-05-05 15:59 36.83095 -13.46365 37145 ft 433 kts 217°
2026-05-05 16:00 36.78070 -13.50490 37142 ft 433 kts 217°
2026-05-05 16:00 36.73076 -13.54591 37143 ft 433 kts 217°
2026-05-05 16:01 36.68069 -13.58701 37145 ft 433 kts 217°
2026-05-05 16:01 36.63023 -13.62837 37146 ft 432 kts 217°
2026-05-05 16:02 36.58009 -13.66947 37146 ft 433 kts 216°
2026-05-05 16:02 36.52986 -13.71072 37146 ft 433 kts 216°
2026-05-05 16:03 36.47965 -13.75181 37151 ft 432 kts 216°
2026-05-05 16:03 36.42944 -13.79276 37150 ft 433 kts 216°
2026-05-05 16:04 36.37900 -13.83380 37152 ft 434 kts 216°
2026-05-05 16:04 36.32868 -13.87468 37149 ft 433 kts 216°
2026-05-05 16:05 36.27847 -13.91539 37154 ft 433 kts 216°
2026-05-05 16:05 36.22806 -13.95618 37149 ft 433 kts 216°
2026-05-05 16:06 36.17764 -13.99692 37147 ft 433 kts 216°
2026-05-05 16:06 36.12741 -14.03744 37149 ft 434 kts 216°
2026-05-05 16:07 36.07681 -14.07820 37130 ft 434 kts 216°
2026-05-05 16:07 36.02614 -14.11894 37133 ft 434 kts 216°
2026-05-05 16:08 35.97561 -14.15953 37124 ft 434 kts 216°
2026-05-05 16:08 35.92482 -14.20032 37131 ft 434 kts 216°
2026-05-05 16:09 35.87432 -14.24073 37128 ft 434 kts 216°
2026-05-05 16:09 35.82368 -14.28100 37131 ft 435 kts 216°
2026-05-05 16:10 35.77288 -14.32145 37133 ft 435 kts 216°
2026-05-05 16:10 35.72214 -14.36182 37126 ft 435 kts 216°
2026-05-05 16:11 35.67127 -14.40227 37133 ft 436 kts 216°
2026-05-05 16:12 35.56962 -14.48297 37130 ft 436 kts 216°
2026-05-05 16:13 35.44228 -14.58370 37141 ft 436 kts 216°
2026-05-05 16:13 35.39156 -14.62373 37139 ft 436 kts 216°
2026-05-05 16:14 35.28961 -14.70434 37133 ft 437 kts 215°
2026-05-05 16:15 35.18719 -14.78495 37131 ft 438 kts 215°
2026-05-05 16:16 35.08467 -14.86520 37134 ft 438 kts 215°
2026-05-05 16:17 35.03338 -14.90525 37265 ft 436 kts 215°
2026-05-05 16:17 35.00847 -14.92465 37890 ft 425 kts 215°
2026-05-05 16:18 34.95933 -14.96288 38585 ft 414 kts 216°
2026-05-05 16:18 34.93503 -14.98181 38642 ft 416 kts 216°
2026-05-05 16:18 34.88628 -15.01972 38775 ft 417 kts 215°
2026-05-05 16:19 34.86159 -15.03877 38865 ft 417 kts 215°
2026-05-05 16:19 34.78828 -15.09539 39118 ft 417 kts 215°
2026-05-05 16:20 34.69056 -15.17082 39133 ft 418 kts 215°
2026-05-05 16:22 34.56800 -15.26525 39117 ft 417 kts 215°
2026-05-05 16:23 34.47019 -15.34040 39109 ft 417 kts 216°
2026-05-05 16:23 34.39695 -15.39656 39126 ft 417 kts 216°
2026-05-05 16:24 34.34776 -15.43417 39026 ft 416 kts 216°
2026-05-05 16:24 34.29829 -15.47201 37260 ft 427 kts 216°
2026-05-05 16:25 34.27340 -15.49104 36264 ft 431 kts 215°
2026-05-05 16:25 34.22279 -15.52962 34950 ft 433 kts 215°
2026-05-05 16:25 34.19724 -15.54906 34270 ft 433 kts 215°
2026-05-05 16:26 34.14634 -15.58780 32615 ft 435 kts 215°
2026-05-05 16:26 34.09519 -15.62668 30959 ft 436 kts 215°
2026-05-05 16:27 34.06965 -15.64605 30384 ft 430 kts 214°
2026-05-05 16:27 34.04462 -15.66508 29821 ft 425 kts 214°
2026-05-05 16:27 34.01981 -15.68399 29220 ft 421 kts 214°
2026-05-05 16:27 33.99532 -15.70264 28623 ft 418 kts 214°
2026-05-05 16:28 33.97093 -15.72115 28040 ft 414 kts 214°
2026-05-05 16:28 33.94655 -15.73962 27411 ft 412 kts 214°
2026-05-05 16:28 33.92234 -15.75794 26876 ft 408 kts 214°
2026-05-05 16:28 33.89869 -15.77579 26409 ft 402 kts 214°
2026-05-05 16:29 33.87499 -15.79359 25949 ft 397 kts 214°
2026-05-05 16:29 33.85184 -15.81093 25504 ft 392 kts 214°
2026-05-05 16:29 33.82878 -15.82823 25067 ft 387 kts 214°
2026-05-05 16:29 33.80597 -15.84537 24637 ft 382 kts 214°
2026-05-05 16:30 33.78373 -15.86209 24209 ft 378 kts 215°
2026-05-05 16:30 33.76164 -15.87869 23781 ft 374 kts 215°
2026-05-05 16:30 33.73960 -15.89526 23347 ft 371 kts 215°
2026-05-05 16:30 33.71787 -15.91161 22919 ft 368 kts 215°
2026-05-05 16:31 33.69633 -15.92780 22474 ft 366 kts 215°
2026-05-05 16:31 33.67492 -15.94387 22037 ft 363 kts 215°
2026-05-05 16:31 33.65370 -15.95993 21609 ft 360 kts 216°
2026-05-05 16:31 33.63242 -15.97631 21175 ft 358 kts 216°
2026-05-05 16:32 33.61163 -15.99233 20734 ft 356 kts 216°
2026-05-05 16:32 33.59081 -16.00837 20289 ft 355 kts 216°
2026-05-05 16:32 33.57008 -16.02427 19868 ft 353 kts 216°
2026-05-05 16:32 33.54941 -16.04013 19454 ft 351 kts 216°
2026-05-05 16:33 33.52910 -16.05570 19023 ft 349 kts 215°
2026-05-05 16:33 33.50856 -16.07143 18551 ft 349 kts 215°
2026-05-05 16:33 33.48811 -16.08707 18086 ft 348 kts 215°
2026-05-05 16:33 33.46748 -16.10285 17641 ft 347 kts 215°
2026-05-05 16:34 33.44724 -16.11832 17201 ft 346 kts 215°
2026-05-05 16:34 33.42718 -16.13364 16789 ft 344 kts 215°
2026-05-05 16:34 33.41154 -16.14559 16472 ft 343 kts 215°
2026-05-05 16:34 33.38780 -16.16371 15994 ft 340 kts 214°
2026-05-05 16:35 33.36789 -16.17889 15596 ft 338 kts 214°
2026-05-05 16:35 33.34815 -16.19391 15205 ft 336 kts 214°
2026-05-05 16:35 33.32863 -16.20876 14815 ft 333 kts 214°
2026-05-05 16:35 33.30917 -16.22355 14422 ft 331 kts 214°
2026-05-05 16:36 33.28976 -16.23829 14032 ft 329 kts 214°
2026-05-05 16:36 33.27045 -16.25296 13648 ft 327 kts 214°
2026-05-05 16:36 33.25133 -16.26750 13267 ft 325 kts 214°
2026-05-05 16:36 33.23235 -16.28193 12887 ft 322 kts 214°
2026-05-05 16:37 33.21346 -16.29627 12512 ft 321 kts 214°
2026-05-05 16:37 33.19486 -16.31037 12126 ft 319 kts 214°
2026-05-05 16:37 33.17621 -16.32450 11751 ft 317 kts 214°
2026-05-05 16:37 33.15755 -16.33864 11371 ft 315 kts 213°
2026-05-05 16:38 33.13899 -16.35268 10999 ft 313 kts 214°
2026-05-05 16:38 33.12076 -16.36645 10630 ft 311 kts 213°
2026-05-05 16:38 33.10243 -16.38030 10253 ft 309 kts 213°
2026-05-05 16:38 33.08484 -16.39359 10136 ft 289 kts 213°
2026-05-05 16:39 33.06826 -16.40611 10111 ft 276 kts 213°
2026-05-05 16:39 33.05216 -16.41823 9860 ft 275 kts 213°
2026-05-05 16:39 33.03598 -16.43044 9532 ft 274 kts 214°
2026-05-05 16:39 33.01993 -16.44257 9212 ft 272 kts 214°
2026-05-05 16:40 33.00382 -16.45475 8892 ft 271 kts 214°
2026-05-05 16:40 32.98801 -16.46668 8589 ft 270 kts 214°
2026-05-05 16:40 32.97214 -16.47865 8272 ft 268 kts 213°
2026-05-05 16:40 32.95633 -16.49055 7957 ft 267 kts 214°
2026-05-05 16:41 32.94064 -16.50238 7659 ft 266 kts 215°
2026-05-05 16:41 32.92555 -16.51525 7345 ft 265 kts 220°
2026-05-05 16:41 32.91163 -16.52939 7038 ft 263 kts 223°
2026-05-05 16:41 32.89819 -16.54377 6733 ft 262 kts 223°
2026-05-05 16:42 32.88456 -16.55829 6441 ft 260 kts 223°
2026-05-05 16:42 32.87112 -16.57254 6169 ft 257 kts 223°
2026-05-05 16:42 32.85809 -16.58639 6110 ft 253 kts 223°
2026-05-05 16:42 32.84486 -16.60048 5937 ft 254 kts 223°
2026-05-05 16:43 32.83178 -16.61445 5676 ft 253 kts 223°
2026-05-05 16:43 32.81802 -16.62747 5399 ft 252 kts 213°
2026-05-05 16:43 32.80235 -16.63685 5121 ft 250 kts 201°
2026-05-05 16:43 32.78618 -16.64368 4863 ft 248 kts 198°
2026-05-05 16:44 32.76985 -16.65012 4599 ft 246 kts 197°
2026-05-05 16:44 32.75365 -16.65658 4295 ft 240 kts 197°
2026-05-05 16:44 32.73831 -16.66284 4037 ft 228 kts 197°
2026-05-05 16:44 32.72359 -16.66883 3811 ft 217 kts 197°
2026-05-05 16:45 32.70935 -16.67461 3605 ft 216 kts 196°
2026-05-05 16:45 32.69510 -16.68038 3397 ft 215 kts 196°
2026-05-05 16:45 32.68121 -16.68602 3215 ft 205 kts 195°
2026-05-05 16:45 32.66801 -16.69137 2948 ft 196 kts 195°
2026-05-05 16:46 32.65571 -16.69637 2880 ft 173 kts 195°
2026-05-05 16:46 32.64482 -16.70079 2846 ft 160 kts 195°
2026-05-05 16:46 32.63457 -16.70568 2723 ft 156 kts 205°
2026-05-05 16:46 32.62561 -16.71275 2569 ft 156 kts 219°
2026-05-05 16:47 32.61811 -16.72204 2495 ft 156 kts 232°
2026-05-05 16:47 32.61243 -16.73320 2415 ft 157 kts 246°
2026-05-05 16:47 32.60900 -16.74542 2329 ft 156 kts 260°
2026-05-05 16:47 32.60789 -16.75814 2238 ft 155 kts 274°
2026-05-05 16:48 32.60909 -16.77070 2121 ft 154 kts 287°
2026-05-05 16:48 32.61258 -16.78239 1872 ft 148 kts 304°
2026-05-05 16:48 32.61861 -16.79199 1681 ft 143 kts 322°
2026-05-05 16:48 32.62659 -16.79885 1497 ft 138 kts 339°
2026-05-05 16:49 32.63565 -16.80257 1322 ft 138 kts 354°
2026-05-05 16:49 32.64524 -16.80335 1149 ft 139 kts
2026-05-05 16:49 32.65507 -16.80360 996 ft 141 kts
2026-05-05 16:49 32.66474 -16.80234 808 ft 139 kts 14°
2026-05-05 16:50 32.67405 -16.79893 671 ft 140 kts 25°
2026-05-05 16:50 32.68213 -16.79267 345 ft 138 kts 40°
2026-05-05 16:50 32.68904 -16.78476 226 ft 137 kts 43°
2026-05-05 16:50 32.69530 -16.77747 185 ft 113 kts 44°
2026-05-05 16:51 32.69964 -16.77241 201 ft 65 kts 45°
2026-05-05 16:51 32.70163 -16.77006 201 ft 18 kts 46°
2026-05-05 16:51 32.70245 -16.76897 201 ft 17 kts 42°
2026-05-05 16:51 32.70343 -16.76831 201 ft 16 kts 14°
2026-05-05 16:52 32.70352 -16.76788 201 ft 9 kts 187°
2026-05-05 16:52 32.70284 -16.76860 201 ft 17 kts 226°
2026-05-05 16:52 32.70201 -16.76965 201 ft 17 kts 228°
2026-05-05 16:52 32.70116 -16.77060 201 ft 16 kts 225°
2026-05-05 16:53 32.70035 -16.77153 201 ft 13 kts 218°
2026-05-05 16:53 32.69944 -16.77178 201 ft 14 kts 181°
2026-05-05 16:53 32.69847 -16.77186 201 ft 14 kts 199°
2026-05-05 16:53 32.69770 -16.77262 197 ft 16 kts 225°
2026-05-05 16:54 32.69670 -16.77384 188 ft 22 kts 226°
2026-05-05 16:54 32.69562 -16.77518 182 ft 22 kts 226°
2026-05-05 16:54 32.69471 -16.77630 181 ft 14 kts 226°
2026-05-05 16:54 32.69405 -16.77711 181 ft 10 kts 225°
2026-05-05 16:55 32.69355 -16.77718 181 ft 6 kts 139°
2026-05-05 16:55 32.69336 -16.77694 181 ft 2 kts 137°
2026-05-05 16:55 32.69334 -16.77692 181 ft 0 kts 137°